This is the latest recevied weather packets stored in our database for station/object KC8SWY-15. If no packets are shown the sender has not sent any weather packets the latest 1 day(s).
| Time | Temp. | Humidity | Pressure | Rain* | Wind** | Luminosity | Snow |
|---|---|---|---|---|---|---|---|
| 1778035167 | 7.22° C | 70% | 1010 hPa | 0 mm | 0 m/s | - | - |
| 1778034867 | 7.22° C | 72% | 1009.9 hPa | 0 mm | 0 m/s | - | - |
| 1778034567 | 7.22° C | 72% | 1009.8 hPa | 0 mm | 0 m/s | - | - |
| 1778034267 | 7.78° C | 75% | 1009.8 hPa | 0 mm | 0 m/s | - | - |
| 1778033967 | 7.78° C | 74% | 1009.9 hPa | 0 mm | 0 m/s | - | - |
| 1778033667 | 7.78° C | 72% | 1009.9 hPa | 0 mm | 0 m/s | - | - |
| 1778033367 | 7.78° C | 74% | 1009.8 hPa | 0 mm | 0 m/s | - | - |
| 1778033067 | 7.78° C | 72% | 1009.8 hPa | 0 mm | 0 m/s | - | - |
| 1778032767 | 7.78° C | 72% | 1009.7 hPa | 0 mm | 0 m/s | - | - |
| 1778032467 | 7.78° C | 72% | 1009.5 hPa | 0 mm | 0 m/s | - | - |
| 1778032167 | 7.78° C | 72% | 1009.5 hPa | 0 mm | 0 m/s | - | - |
| 1778031867 | 7.78° C | 72% | 1009.3 hPa | 0 mm | 0 m/s | - | - |
| 1778031567 | 7.78° C | 71% | 1009.4 hPa | 0 mm | 0 m/s | - | - |
| 1778031267 | 7.78° C | 71% | 1009.3 hPa | 0 mm | 0 m/s | - | - |
| 1778030967 | 7.78° C | 67% | 1009.3 hPa | 0 mm | 0 m/s | - | - |
| 1778030667 | 7.78° C | 66% | 1009.2 hPa | 0 mm | 0 m/s | - | - |
| 1778030367 | 8.33° C | 65% | 1009 hPa | 0 mm | 0 m/s | - | - |
| 1778030067 | 8.33° C | 66% | 1008.9 hPa | 0 mm | 0 m/s | - | - |
| 1778029767 | 8.33° C | 68% | 1009 hPa | 0 mm | 0 m/s | - | - |
| 1778029467 | 8.33° C | 63% | 1009.2 hPa | 0 mm | 0 m/s | - | - |
| 1778029167 | 8.33° C | 60% | 1009 hPa | 0 mm | 0 m/s | - | - |
| 1778028867 | 8.89° C | 63% | 1009 hPa | 0 mm | 0 m/s | - | - |
| 1778028567 | 8.89° C | 63% | 1008.9 hPa | 0 mm | 0 m/s | - | - |
| 1778028267 | 8.89° C | 59% | 1009 hPa | 0 mm | 0 m/s | - | - |
| 1778027967 | 9.44° C | 64% | 1009 hPa | 0 mm | 0 m/s | - | - |
* Rain latest hour (hover to see other rain measurements)
** Current wind speed in m/s (hover to see current wind gust speed)